Location: Stonelick Lake State Park
(39.2170°N, 84.0850°W)
Time: 22:23:59
(UTC-04:00)

Daily predictions for brighter satellites

Satellite Brightness Start Highest point End
(mag) Time Altitude Azimuth Time Altitude Azimuth Time Altitude Azimuth
DEBRIS 3.1 21:14:15 10° SW 21:17:04 68° SE 21:24:55 10° ENE
Cosmos 923 Rocket 4.0 21:15:50 10° S 21:21:07 72° ESE 21:26:25 10° NNE
Tiangong 2 1.1 21:19:43 10° WSW 21:22:54 88° SSE 21:26:04 10° ENE
Cosmos 1441 Rocket 4.2 21:20:47 10° SSE 21:23:55 26° E 21:27:04 10° NE
ERS-1 Rocket 4.2 21:22:17 10° ESE 21:26:24 26° ENE 21:30:31 10° NNE
Resurs 01 Rocket 2.5 21:23:15 10° S 21:27:34 51° W 21:31:54 10° NNW
CENTAUR R/B 3.2 21:20:15 10° NNW 21:28:16 87° ENE 21:36:44 10° SSE
Cosmos 1455 Rocket 3.3 21:24:13 10° NNW 21:28:34 71° W 21:32:52 10° S
NOSS 2-2 (D) 4.1 21:26:18 10° SW 21:30:14 60° NW 21:34:43 10° NNE
USA 40 PKM 4.5 21:31:17 10° SW 21:34:42 76° NW 21:38:59 10° NE
Meteor 1-29 3.1 21:32:06 10° NNE 21:35:22 48° E 21:38:37 10° S
Nadezhda 1 Rocket 4.3 21:30:13 10° SSE 21:36:15 48° E 21:42:22 10° NNE
COSMOS 2406 3.4 21:35:39 10° SSW 21:41:23 84° WNW 21:47:08 10° NNE
Cosmos 2082 Rocket 3.8 21:41:51 11° SE 21:44:26 14° E 21:47:23 10° ENE
ASTRO E2 4.4 21:44:33 10° WSW 21:47:29 20° SSW 21:49:55 12° SSE
Meteor 1-13 Rocket 4.5 21:42:34 10° S 21:48:32 83° W 21:54:27 10° N
Cosmos 1743 2.9 21:46:06 10° NNW 21:50:00 73° W 21:53:53 10° S
CZ-4B DEB 2.5 21:48:41 10° SSE 21:51:40 88° ENE 21:54:40 10° NNW
Cosmos 2112 Rocket 4.0 21:48:27 10° SSW 21:53:40 89° WNW 21:58:54 10° NNE
Cosmos 1238 Rocket 4.2 21:48:55 10° S 21:55:34 66° E 22:02:00 10° NNE
Cosmos 1346 4.0 21:54:38 10° SSW 21:57:18 45° W 21:59:59 10° N
Aureole 3 Rocket 3.7 21:51:07 10° S 21:57:36 83° W 22:02:11 10° N
ISS -2.8 21:54:30 10° WSW 21:57:42 49° NW 22:00:56 10° NE
ASTEX 1 3.5 21:55:10 10° SSE 21:59:59 62° E 22:04:50 10° N
OAO 2 Rocket 3.5 21:56:31 10° WSW 22:01:17 52° S 22:05:07 16° ESE
H-2A R/B 3.6 21:59:49 13° ESE 22:02:41 20° ENE 22:06:16 10° NNE
Helios 1A 3.8 22:00:00 10° S 22:04:06 51° W 22:08:13 10° NNW
SAR-Lupe-4 4.2 22:01:34 10° S 22:05:05 55° W 22:08:38 10° NNW
SL-27 R/B 3.1 22:02:51 10° SSW 22:06:28 60° WNW 22:10:06 10° N
Cosmos 1939 Rocket 3.5 22:04:49 10° S 22:08:35 52° W 22:12:23 10° NNW
YAOGAN 6 2.5 22:06:34 15° S 22:09:25 86° WSW 22:12:56 10° NNW
Cosmos 921 Rocket 4.3 22:06:31 10° N 22:10:22 28° ENE 22:12:34 19° ESE
Cosmos 1666 3.2 22:08:54 10° NNW 22:12:35 56° W 22:16:14 10° S
Meteor 2-9 Rocket 4.2 22:08:25 10° N 22:13:57 88° W 22:19:13 12° S
Okean 1-7 Rocket 3.6 22:12:25 10° S 22:16:52 83° W 22:21:24 10° N
Cosmos 1892 Rocket 4.1 22:15:23 21° SSE 22:17:54 40° E 22:22:01 10° NNE
DNEPR-1 R/B 4.2 22:15:22 10° NW 22:19:32 51° WSW 22:22:55 17° S
Intercosmos 24 3.5 22:17:09 10° N 22:20:55 74° E 22:22:54 24° SSE
Cosmos 2056 Rocket 3.7 22:16:12 10° N 22:21:17 57° ENE 22:24:17 24° SE
Cosmos 1833 Rocket 3.5 22:19:02 21° SE 22:21:29 29° ESE 22:26:13 10° NE
CZ-3B Rocket 4.4 22:19:23 10° S 22:39:11 - ESE 22:21:33 14° SSE
Cosmos 1437 Rocket 2.8 22:19:34 10° N 22:23:23 61° E 22:25:16 28° SSE
Envisat 4.4 22:19:40 10° SSW 22:24:18 35° W 22:28:57 10° NNW
Cosmos 2341 Rocket 4.2 22:19:01 10° N 22:25:16 57° E 22:29:28 22° SSE
MetOp-A 4.1 22:23:25 20° SSE 22:27:09 74° ENE 22:32:31 10° N
Meteor 2-4 Rocket 4.4 22:23:30 10° SSW 22:29:01 56° WNW 22:34:44 10° N
Cosmos 1606 Rocket 3.5 22:26:47 10° N 22:31:06 68° E 22:33:15 28° SSE
PSLV R/B 3.0 22:29:16 10° W 22:32:21 64° SSW 22:32:59 48° SE
Cosmos 405 4.1 22:34:51 10° NNW 22:38:13 40° W 22:40:27 18° SSW
Cosmos 1726 Rocket 3.4 22:36:30 10° N 22:40:50 73° E 22:42:37 34° SSE
Cosmos 1025 Rocket 3.9 22:37:02 10° SSW 22:41:09 47° W 22:45:17 10° N
USA 245 2.5 22:42:20 53° NE 22:42:20 53° NE 22:44:23 10° N
Cosmos 1515 3.5 22:40:58 30° S 22:42:46 85° E 22:46:35 10° N
COSMOS 2487 2.4 22:43:44 45° SSE 22:44:37 64° ESE 22:48:10 10° NNE
CZ-3A R/B 1.0 22:46:15 10° WSW 22:49:56 48° NW 22:50:15 42° NNW
Cosmos 1452 Rocket 4.0 22:48:11 10° N 22:53:16 45° ENE 22:55:04 33° ESE
Landsat 7 4.4 22:52:27 34° ESE 22:53:51 43° ENE 22:58:21 10° N
SPOT 1/Viking Rocket 3.5 22:51:40 35° SSE 22:53:51 69° ENE 22:58:59 10° N
Cosmos 1980 Rocket 3.7 22:49:32 10° N 22:54:00 23° NE 22:56:23 18° E
YAOGAN 11 4.2 22:52:10 33° S 22:54:01 72° WSW 22:58:21 10° NNW
Cosmos 2181 Rocket 4.0 22:49:25 18° S 22:54:20 86° E 23:00:40 10° N
Cosmos 2058 Rocket 3.0 22:51:01 10° N 22:55:27 77° E 22:56:51 43° SSE
Tiangong 2 2.3 22:56:46 10° WNW 22:59:49 41° N 23:00:58 28° NE
ARGOS 3.3 22:58:32 29° S 23:01:22 73° WSW 23:06:48 10° NNW
Cosmos 1295 Rocket 4.4 22:56:57 10° N 23:03:10 87° W 23:06:29 30° S
ERS-1 Rocket 4.3 23:01:28 15° SSW 23:05:00 34° W 23:09:34 10° NNW
Nimbus 7 Rocket 4.4 22:59:17 10° NNE 23:05:24 90° W 23:09:45 20° SSW
Terra 2.4 23:07:57 38° ESE 23:08:53 43° ENE 23:13:23 10° N
OE (NEXTSAT) 4.3 23:05:21 10° WNW 23:08:47 75° WSW 23:08:47 75° WSW
SPOT 5 3.1 23:09:29 34° SSW 23:11:00 52° W 23:15:17 10° NNW
H-2A R/B 2.5 23:15:12 44° E 23:15:47 47° ENE 23:20:09 10° N
IGS 5A 3.8 23:18:14 47° E 23:18:23 48° ENE 23:22:24 10° N
Cosmos 1812 Rocket 4.3 23:14:13 10° N 23:18:25 39° ENE 23:18:32 39° E
Cosmos 468 4.4 23:17:25 48° SSE 23:18:46 67° ESE 23:24:02 10° NNE
Meteor 2-21 4.3 23:16:56 10° N 23:22:59 75° E 23:24:52 46° SSE
Cosmos 1626 Rocket 3.3 23:26:20 76° SSE 23:26:37 83° E 23:30:57 10° N
Meteor 2-21 Rocket 4.4 23:21:01 10° N 23:27:03 64° E 23:28:38 47° SE
Cosmos 2082 Rocket 2.4 23:23:35 18° SSW 23:27:49 71° WNW 23:33:29 10° NNE
Cosmos 2278 4.1 23:23:55 10° NNW 23:29:28 55° WSW 23:31:16 39° SSW
SL-19 R/B 4.0 23:27:06 10° NNE 23:32:25 69° ESE 23:33:15 58° SSE
Meteor 1-22 Rocket 4.0 23:28:17 10° N 23:33:38 79° E 23:34:40 59° SSE
ISS -0.4 23:33:09 10° NW 23:34:49 13° NNW 23:36:30 10° NNE
SL-8 Rocket 4.2 23:29:42 10° NNW 23:35:53 65° W 23:38:28 36° SSW
USA 229 DEB 4.3 23:29:08 10° NNW 23:36:06 52° NE 23:39:05 33° ESE
USA 229 4.3 23:29:15 10° NNW 23:36:12 51° NE 23:39:12 33° ESE
Cosmos 2366 rocket 3.9 23:35:33 10° N 23:41:42 79° W 23:43:33 48° S
H-2A R/B 2.7 23:40:27 37° SW 23:41:44 45° W 23:46:33 10° NNW
Cosmos 2228 4.3 23:41:41 10° NNW 23:45:30 32° W 23:46:19 29° WSW
Cosmos 158 Rocket 3.9 23:46:05 69° SSE 23:46:39 78° ESE 23:52:02 10° NNE
Meteor 1-4 Rocket 3.8 23:45:56 10° NNW 23:48:46 37° WNW 23:48:46 37° WNW
Cosmos 1697 Rocket 2.6 23:44:28 10° NNW 23:50:05 76° WSW 23:50:57 63° S
Cosmos 2360 4.5 23:45:18 10° NNW 23:50:55 54° ENE 23:51:48 49° E
